ATLAS 2 CENTAUR R/B

基本信息
目录编号:
23468
目录名称:
ATLAS 2 CENTAUR R/B
国际标识:
1995-003B
轨道中心:
EARTH
物体状态:
在轨
发射日期:
1995-01-29 UTC
国别:
美国 (US)
轨道信息
数据来源: 国际轨道数据
星历时间: 2026-07-13T22:43:21+0800
半长轴: 15459.201km
偏心率: 0.5683352
轨道倾角: 26.668°
近地点辐角: 351.728°
升交点赤经: 236.797°
平近点角: 1.959°
近地点: 295.055km
远地点: 17867.073km
周期: 318.816分钟
每日圈数: 4.51671
详细信息
发射场:
AFETR
轨道高度:
LEO
数据来源:
AOE Integration Group
参考系:
TEME
时间系统:
UTC
历元类型:
SGP4
2D轨道图
3D轨道图
轨道高度分析图
轨道倾角分析图
轨道综合分析图
查看轨道综合分析图